Location: Elstree
(51.6403°N, 0.2969°W)
Time: 19:10:39
(UTC+00:00)

Meteor 2-12 Rocket - Pass Details

Date: 03 March 2021
Orbit: 936 x 957 km, 82.5° (Epoch: 17 April)

Event Time Altitude Azimuth Distance (km) Brightness Sun altitude
Rises 18:50:37 0° 178° (S) 3,587 7.4 -10.9°
Reaches altitude 10° 18:53:06 10° 176° (S) 2,650 6.7 -11.3°
Maximum altitude 18:59:05 67° 95° (E) 1,024 4.4 -12.2°
Drops below altitude 10° 19:05:08 10° 15° (NNE) 2,681 6.7 -13.2°
Sets 19:07:40 0° 13° (NNE) 3,634 7.4 -13.6°
